Regional Weather Roundup
Issued by NWS Wilmington, NC

Home | Current Version | Previous Version | Text Only | Print | Product List | Glossary On
Versions: 1 2 3 4 5 6 7 8 9 10 11 12 13 14 15 16 17 18 19 20 21 22 23 24 25 26 27 28 29 30 31 32 33 34 35 36 37 38 39 40 41 42
000
ASUS42 KILM 261710
RWRILM
RWRILM
REGIONAL HOURLY WEATHER ROUNDUP
NATIONAL WEATHER SERVICE WILMINGTON NC
1200 PM EST FRI DEC 26 2014

NOTE: "FAIR" INDICATES FEW OR NO CLOUDS BELOW 12,000 FEET WITH NO
SIGNIFICANT WEATHER AND/OR OBSTRUCTIONS TO VISIBILITY.

...............WFO WILMINGTON COUNTY WARNING AREA...............

......COASTAL NC AND SC COUNTIES......

CITY           SKY/WX    TMP DP  RH WIND       PRES   REMARKS
WILMINGTON     SUNNY     59  40  49 CALM      30.33F
SOUTHPORT      SUNNY     59  41  52 CALM      30.33F
N MYRTLE BEACH SUNNY     60  39  45 NE5       30.32F
MYRTLE BEACH   SUNNY     59  39  47 NE8       30.34F

......INLAND NC AND SC COUNTIES.......

CITY           SKY/WX    TMP DP  RH WIND       PRES   REMARKS
LUMBERTON      SUNNY     57  34  41 CALM      30.33F
ELIZABETHTOWN  SUNNY     56  35  45 NW3       30.33F
WHITEVILLE     SUNNY     56  35  43 CALM      30.33F
FLORENCE       SUNNY     57  35  43 CALM      30.34F
DARLINGTON     SUNNY     55  36  47 SE3       30.36F

....................REST OF NORTH CAROLINA......................

.........EASTERN NC.........

CITY           SKY/WX    TMP DP  RH WIND       PRES   REMARKS
CAPE HATTERAS  SUNNY     54  44  69 NW6       30.32F
JACKSONVILLE   SUNNY     57  36  44 S6        30.34F
MOREHEAD CITY  SUNNY     56  36  47 NW6       30.33F
KENANSVILLE    SUNNY     56  32  40 CALM      30.35F
NEW BERN       SUNNY     59  35  40 CALM      30.35F
ELIZABETH CITY SUNNY     56  39  53 SW3       30.32F

.........CENTRAL NC.........

CITY           SKY/WX    TMP DP  RH WIND       PRES   REMARKS
RALEIGH DURHAM MOSUNNY   54  36  50 SW7       30.34F
ROCKY MOUNT    SUNNY     54  35  48 SW5       30.33F
ROANOKE RAPIDS NOT AVBL
FAYETTEVILLE   SUNNY     55  35  47 SW3       30.34F
HOFFMAN        SUNNY     55  34  45 N2        30.35F

.........WESTERN NC.........

CITY           SKY/WX    TMP DP  RH WIND       PRES   REMARKS
CHARLOTTE      MOSUNNY   54  33  45 VRB5      30.33F
GREENSBORO     MOSUNNY   51  33  50 S9        30.31F
HICKORY        NOT AVBL
BOONE          NOT AVBL
ASHEVILLE      NOT AVBL

.....................REST OF SOUTH CAROLINA.....................

.........EASTERN SC.........

CITY           SKY/WX    TMP DP  RH WIND       PRES   REMARKS
CHARLESTON     MOSUNNY   61  44  53 CALM      30.33F
BEAUFORT MCAS  SUNNY     61  45  55 NE7       30.33F
HILTON HEAD    SUNNY     61  46  59 N5        30.34F

.........CENTRAL SC.........

CITY           SKY/WX    TMP DP  RH WIND       PRES   REMARKS
COLUMBIA       SUNNY     56  38  50 VRB3      30.34F
ORANGEBURG     SUNNY     57  38  48 SE6       30.33F
SUMTER SHAW    SUNNY     56  37  48 VRB3      30.32F

.........WESTERN SC.........

CITY           SKY/WX    TMP DP  RH WIND       PRES   REMARKS
GREENVILLE     NOT AVBL
ROCK HILL      SUNNY     54  34  46 W5        30.34F
ANDERSON       SUNNY     53  36  52 CALM      30.34F
CLEMSON        NOT AVBL
GREENWOOD      SUNNY     53  36  52 S3        30.35F


...................COASTAL AND OFFSHORE REPORTS..................

................LOCAL PIERS AND NC RESERVE................


STATION/POSITION TIME  SKY/WX   TEMP    WIND        PRES    VSBY
                                AIR SEA DIR/SP/G
                 (UTC)          (F)     (DEG/KT/KT) (MB)    (MI)
JOHNY MRCER PIER 1700            53 55   50/  7/  7 1026.5F
NC RESRV MASNBRO 1600            55      40/  5     1028.0S
OCEAN CREST PIER 1700            58 54   90/  2/  3 1026.3F
SPRINGMAID  PIER 1700            53 52   60/  7/  7 1027.1F


................COASTAL AND OFFSHORE BUOYS................


STATION/POSITION TIME  SKY/WX   TEMP    WIND        PRES    VSBY
                                AIR SEA DIR/SP/G
                 (UTC)          (F)     (DEG/KT/KT) (MB)    (MI)
DIMNDSHOAL 41025 1600            58                 1027.4R
WVE H/P(F/S)=  3/ 8

CAPE LOOKOUT     1700            55     320/  7/  8 1026.9F
ONSLOW BAY 41036 1700            56 60  360/  6/  8 1027.5F
WVE H/P(F/S)=  2/ 7 SWL H/P/D(F/S/D)=  2/150/ 7

5 WRITEBCH 41038 NOT AVBL
MASONBORO  41110 1700               53                N/A
WVE H/P(F/S)=  2/ 8 WND WVE H/P(F/S)=  2/ 8

WILM HARBR 41108 1700               60                N/A
WVE H/P(F/S)=  2/ 7 WND WVE H/P(F/S)=  2/ 7

27WRITEBCH 41037 1600            53 60   50/  6/  8 1029.0S
FRYING PAN 41013 1700            58 70   40/ 12/ 14 1026.9F
WVE H/P(F/S)=  2/ 7 WND WVE H/P(F/S)=  2/ 4 SWL H/P/D(F/S/D)=  2/140/ 7

SUNST NRSH 41024 1600            56      80/  4/  4   N/A
CAPRS NRSH 41029 1600            56      40/  8/ 10   N/A
EDISTO     41004 1700            63 73   30/ 10/ 12 1026.0F
WVE H/P(F/S)=  2/ 8 WND WVE H/P(F/S)=  2/ 3 SWL H/P/D(F/S/D)=  2/ 8



..........OFFSHORE BUOYS BEYOND 100 NM OFFSHORE...........
.....IN A TRIANGLE---HAT TO BERMUDA TO BAHAMAS TO HAT.....


STATION/POSITION TIME  SKY/WX   TEMP    WIND        PRES    VSBY
                                AIR SEA DIR/SP/G
                 (UTC)          (F)     (DEG/KT/KT) (MB)    (MI)
150E HAT   41001 NOT AVBL
W BERMUDA  41048 1644            67 73  360/ 12/ 16 1022.5F
WVE H/P(F/S)=  7/ 8 WND WVE H/P(F/S)=  3/ 5 SWL H/P/D(F/S/D)=  7/300/ 8

ATLANTIC S 41049 1646            75 77  290/ 14/ 17 1017.9F
WVE H/P(F/S)=  6/11 WND WVE H/P(F/S)=  2/ 5 SWL H/P/D(F/S/D)=  5/ 40/11

E BAHAMAS  41046 1555            77 80   60/ 10/ 12 1020.1
WVE H/P(F/S)=  4/11 WND WVE H/P(F/S)=  2/ 4 SWL H/P/D(F/S/D)=  3/ 40/11

NE BAHAMAS 41047 1649            76 78  280/ 12/ 14 1021.5F
WVE H/P(F/S)=  3/ 8 WND WVE H/P(F/S)=  2/ 5 SWL H/P/D(F/S/D)=  3/130/ 8

120E CANVRL41010 1700            72 76   80/  6/  8 1023.7F
WVE H/P(F/S)=  4/ 6 WND WVE H/P(F/S)=  2/ 4 SWL H/P/D(F/S/D)=  3/340/ 6


END


USA.gov is the U.S. government's official web portal to all federal, state and local government web resources and services.